709  
ASUS44 KHUN 221010  
RWRHUN  
 
WEATHER ROUNDUP FOR THE TENNESSEE VALLEY  
NATIONAL WEATHER SERVICE HUNTSVILLE AL  
400 AM CST THU FEB 22 2024  
 
ALZ001>004-221100-  
NORTHWEST ALABAMA  
 
CITY SKY/WX TMP DP RH WIND PRES REMARKS
 
BANKHEAD NF N/A 53 45 73 SW3 N/A  
SHOALS AIRPORT PTCLDY 57 47 69 S12 29.94F  

 
 
ALZ005>007-016-221100-  
NORTH CENTRAL ALABAMA  
 
CITY SKY/WX TMP DP RH WIND PRES REMARKS
 
DECATUR AP MOCLDY 56 45 66 S16 29.98F  
HUNTSVILLE AP CLEAR 53 44 71 S10 29.98F  
HUN NWS/UAH N/A 55 43 64 S8 N/A  
MERIDIANVILLE PTCLDY 56 42 61 S10 29.98F  
VINEMONT AP CLOUDY 52 46 82 S12G18 30.01F  

 
 
ALZ008>010-221100-  
NORTHEAST ALABAMA  
 
CITY SKY/WX TMP DP RH WIND PRES REMARKS
 
ALBERTVILLE PTCLDY 50 41 71 SW6 30.03S  
FORT PAYNE CLEAR 41 35 80 CALM 30.03F  

 
 
TNZ076-096-097-221100-  
SOUTHEASTERN MIDDLE TENNESSEE  
 
CITY SKY/WX TMP DP RH WIND PRES REMARKS
 
FAYETTEVILLE CLEAR 54 45 71 S13 29.97F  
TULLAHOMA MOCLDY 55 43 62 S9G20 29.94F  
WINCHESTER PTCLDY 55 43 62 MISG 29.97F  

 
   
..SURROUNDING SITES
 
 
 
CITY SKY/WX TMP DP RH WIND PRES REMARKS
 
ATLANTA PTCLDY 45 32 60 SE3 30.10F  
ANNISTON CLEAR 43 39 86 CALM 30.07S  
BIRMINGHAM MOCLDY 54 42 64 S10G17 30.06F  
CHATTANOOGA PTCLDY 45 33 63 CALM 30.04S  
CORINTH CLOUDY 57 50 77 S13 29.91S  
DALTON CLEAR 48 30 51 S5 30.07S  
GADSDEN CLEAR 44 40 85 CALM 30.05F  
GOLDEN TRNGL CLEAR 54 50 86 S10 29.99F  
HALEYVILLE PTCLDY 53 46 77 S14 29.99F  
JACKSON TN MOCLDY 60 50 69 SW17G24 29.85S  
LAWRENCEBURG PTCLDY 54 46 76 S6G13 29.92S  
LEWISBURG MOCLDY 55 45 67 S12 29.91F  
MEMPHIS MOCLDY 61 53 75 S23G35 29.85F  
MURFREESBORO CLOUDY 57 45 62 S12 29.91S  
NASHVILLE PTCLDY 58 44 60 S10 29.91S  
OXFORD MS CLOUDY 59 50 72 SW12G22 29.94S  
ROME CLEAR 40 31 70 CALM 30.06S  
SAVANNAH CLOUDY 59 52 77 S15G22 29.88S  
SELMER MOCLDY 57 48 72 S10G17 29.88S  
TUPELO CLOUDY 53 49 86 S9 29.96R  
TUSCALOOSA PTCLDY 54 46 74 S7 30.03F  

 
 
 
 
CLICK HERE TO GO TO PREVIOUS BULLETINS.

The Nexlab AL Page
The Nexlab TN Page Main Text Page